User: anonymous   Login
Location: Unspecified
(0.0000°N, 0.0000°E)
Time: 04:41:44
(UTC+00:00)
Language:

Polar BEAR P87-1 - Orbit

View from above orbital plane
View from above orbital plane
View from above satellite
View from above satellite

Ground track
Ground track

The orbit data is extracted from the following two-line orbital elements,

1 17070U 86088A   24206.50139399  .00000179  00000-0  17489-3 0  9997
2 17070  89.6021 204.1873 0038301 204.8762 324.8875 13.75068444890211
Epoch (UTC): 24 July 2024 12:02:00
Eccentricity: 0.0038301
inclination: 89.6021°
perigee height: 953 km
apogee height: 1009 km
right ascension of ascending node: 204.1873°
argument of perigee: 204.8762°
revolutions per day: 13.75068444
mean anomaly at epoch: 324.8875°
orbit number at epoch: 89021

The dashed part of the orbit path shows where the satellite is in the earth's shadow,  

DLR